CW4588 Weather Reports


Display with metric or nautical units.
time (UTC)temp
F
wind
direction
speed
MPH
gust
MPH
rain 1hr
in
rain 24hr
in
rain mn
in
humidity
%
barometer
mb
20260905144031 54 360 6.0 0.0 0.00 0.00 0.02 82 995.2
20260905143553 54 339 5.0 0.0 0.00 0.00 0.02 82 995.2
20260905143036 54 334 5.0 0.0 0.00 0.00 0.02 82 995.2
20260905142538 54 339 5.0 0.0 0.00 0.00 0.02 82 995.1
20260905142019 54 98 5.0 0.0 0.00 0.00 0.02 82 995.1
20260905141529 54 342 5.0 0.0 0.00 0.00 0.02 82 995.1
20260905141055 54 19 6.0 0.0 0.00 0.00 0.02 82 995.0
20260905140527 54 13 6.0 0.0 0.00 0.00 0.02 82 995.0
20260905140058 54 16 5.0 0.0 0.00 0.00 0.02 81 995.0
20260905135548 54 294 6.0 0.0 0.00 0.00 0.02 80 994.7
20260905135027 54 339 6.0 0.0 0.00 0.00 0.02 80 994.7
20260905134543 55 343 6.0 0.0 0.00 0.00 0.02 79 994.7
20260905134021 55 9 6.0 0.0 0.00 0.00 0.02 77 994.5
20260905133525 55 22 6.0 0.0 0.00 0.00 0.02 80 994.5
20260905133043 55 13 6.0 0.0 0.00 0.00 0.02 79 994.5
20260905132528 55 24 6.0 0.0 0.00 0.00 0.02 79 994.5
20260905132028 55 356 6.0 0.0 0.00 0.00 0.02 80 994.5
20260905131547 55 342 5.0 0.0 0.00 0.00 0.02 81 994.5
20260905131031 55 307 5.0 0.0 0.00 0.00 0.02 82 994.3
20260905130535 55 328 4.0 0.0 0.00 0.00 0.02 82 994.3
20260905130048 55 41 4.0 0.0 0.00 0.00 0.02 83 994.3
20260905125529 55 342 6.0 0.0 0.00 0.00 0.02 82 994.0
20260905125036 56 22 6.0 0.0 0.00 0.00 0.02 80 994.1
20260905124550 57 16 4.0 0.0 0.00 0.00 0.02 79 994.1
20260905124054 57 22 3.0 0.0 0.00 0.00 0.02 78 993.9
20260905123532 56 356 4.0 0.0 0.00 0.00 0.02 81 993.9
20260905123038 56 342 5.0 0.0 0.00 0.00 0.02 80 993.9
20260905122520 57 342 6.0 0.0 0.00 0.00 0.02 79 993.6
20260905122036 57 335 6.0 0.0 0.00 0.00 0.02 79 993.6
20260905121521 58 47 6.0 0.0 0.00 0.00 0.02 79 993.6
20260905121027 58 13 4.0 0.0 0.00 0.00 0.02 80 993.5
20260905120527 57 37 3.0 0.0 0.00 0.00 0.02 81 993.5
20260905120023 57 356 4.0 0.0 0.00 0.00 0.02 80 993.5
20260905115523 58 339 3.0 0.0 0.00 0.00 0.02 80 993.4
20260905115043 58 322 4.0 0.0 0.00 0.00 0.02 80 993.4
20260905114525 57 20 3.0 0.0 0.00 0.00 0.02 82 993.4
20260905114027 57 334 3.0 0.0 0.00 0.00 0.02 81 993.3
20260905113531 57 342 4.0 0.0 0.00 0.00 0.02 80 993.3
20260905113049 57 359 5.0 0.0 0.00 0.00 0.02 80 993.3
20260905112529 58 3 4.0 0.0 0.00 0.00 0.02 81 993.0
20260905112056 58 336 3.0 0.0 0.00 0.00 0.02 82 993.0
20260905111529 58 16 3.0 0.0 0.00 0.00 0.02 85 993.0
20260905111055 58 23 4.0 0.0 0.00 0.00 0.02 82 992.9
20260905110543 58 19 4.0 0.0 0.00 0.00 0.02 82 992.9
20260905110024 59 27 4.0 0.0 0.00 0.00 0.02 81 992.9
20260905105525 58 36 4.0 0.0 0.00 0.00 0.01 80 992.8
20260905105044 58 14 4.0 0.0 0.00 0.00 0.01 81 992.8
20260905104559 57 26 3.0 0.0 0.00 0.00 0.01 82 992.8
20260905104022 57 26 2.0 0.0 0.00 0.00 0.01 83 992.7
20260905103527 57 29 6.0 0.0 0.00 0.00 0.01 83 992.7
20260905103032 57 3 7.0 0.0 0.00 0.00 0.01 82 992.7
20260905102543 58 24 6.0 0.0 0.00 0.00 0.01 83 992.5
20260905102024 58 13 5.0 0.0 0.00 0.00 0.01 82 992.5
20260905101537 58 352 6.0 0.0 0.00 0.00 0.01 80 992.5
20260905101036 58 24 7.0 0.0 0.00 0.00 0.01 83 992.4
20260905100551 58 27 8.0 0.0 0.00 0.00 0.01 83 992.4
20260905100029 57 10 8.0 0.0 0.00 0.00 0.01 83 992.4
20260905095540 57 10 8.0 0.0 0.00 0.00 0.01 87 992.2
20260905095039 56 23 8.0 0.0 0.00 0.00 0.01 87 992.1
20260905094544 56 332 7.0 0.0 0.00 0.00 0.01 88 992.1
20260905094035 56 17 5.0 0.0 0.00 0.00 0.01 90 992.0
20260905093536 56 341 3.0 0.0 0.00 0.00 0.01 92 992.0
20260905093053 55 355 4.0 0.0 0.00 0.00 0.01 92 992.0
20260905092536 55 29 3.0 0.0 0.00 0.00 0.01 92 991.9
20260905092025 55 342 2.0 0.0 0.00 0.00 0.01 93 991.9
20260905091554 55 332 3.0 0.0 0.00 0.00 0.01 93 991.9
20260905091027 55 342 5.0 0.0 0.00 0.00 0.01 92 991.8
20260905090535 55 353 5.0 0.0 0.00 0.00 0.01 93 991.8
20260905090053 55 24 5.0 0.0 0.00 0.00 0.01 95 991.8
20260905085534 55 342 4.0 0.0 0.00 0.00 0.01 95 991.7
20260905085021 55 328 3.0 0.0 0.00 0.00 0.01 96 991.7
20260905084538 55 27 3.0 0.0 0.00 0.00 0.01 97 991.7
20260905084025 54 342 3.0 0.0 0.00 0.00 0.01 97 991.6
20260905083555 54 343 3.0 0.0 0.00 0.00 0.01 97 991.6
20260905083031 54 37 4.0 0.0 0.00 0.00 0.01 97 991.6
20260905082536 55 7 3.0 0.0 0.00 0.00 0.00 97 991.4
20260905082040 55 350 1.0 0.0 0.00 0.00 0.00 97 991.4
20260905081601 55 338 2.0 0.0 0.00 0.00 0.00 98 991.4
20260905081028 55 331 2.0 0.0 0.00 0.00 0.00 99 991.3
20260905080536 55 30 1.0 0.0 0.00 0.00 0.00 100 991.3
20260905080038 55 31 1.0 0.0 0.00 0.00 0.00 100 991.3
20260905075543 55 349 1.0 0.0 0.00 0.00 0.00 100 991.3
20260905075022 54 359 1.0 0.0 0.00 0.00 0.00 100 991.3
20260905074530 54 342 0.0 0.0 0.00 0.00 0.00 100 991.3
20260905074030 54 359 0.0 0.0 0.00 0.00 0.00 100 991.3
20260905073540 53 336 0.0 0.0 0.00 0.00 0.00 100 991.3
20260905073021 53 321 0.0 0.0 0.00 0.00 0.00 100 991.3
20260905072522 53 329 1.0 0.0 0.00 0.00 0.00 100 991.2
20260905072035 53 341 1.0 0.0 0.00 0.00 0.00 100 991.2
20260905071540 53 345 0.0 0.0 0.00 0.00 0.00 100 991.2
20260905071022 53 293 0.0 0.0 0.00 0.00 0.00 100 991.1
20260905070537 53 341 0.0 0.0 0.00 0.00 0.00 100 991.1
20260905070029 53 342 0.0 0.0 0.00 0.00 0.00 100 991.1
20260905065533 53 247 0.0 0.0 0.00 0.00 0.00 100 991.0
20260905065047 53 324 0.0 0.0 0.00 0.00 0.00 100 991.0
20260905064532 52 341 0.0 0.0 0.00 0.00 0.00 100 991.0
20260905064034 52 325 0.0 0.0 0.00 0.00 0.00 100 990.9
20260905063522 51 300 0.0 0.0 0.00 0.00 0.00 100 990.9
20260905063030 51 329 0.0 0.0 0.00 0.00 0.00 100 990.9
20260905062544 51 317 0.0 0.0 0.00 0.00 0.00 100 990.8
20260905062029 50 318 0.0 0.0 0.00 0.00 0.00 100 990.8
20260905061548 50 339 0.0 0.0 0.00 0.00 0.00 100 990.8
20260905061056 50 342 0.0 0.0 0.00 0.00 0.00 100 990.8
20260905060522 50 326 0.0 0.0 0.00 0.00 0.00 100 990.8
20260905060038 50 280 0.0 0.0 0.00 0.00 0.00 100 990.8
20260905055539 50 342 0.0 0.0 0.00 0.00 0.00 100 990.8
20260905055042 49 315 0.0 0.0 0.00 0.00 0.00 100 990.8
20260905054558 49 290 0.0 0.0 0.00 0.00 0.00 100 990.8
20260905054025 49 335 0.0 0.0 0.00 0.00 0.00 100 990.8
20260905053602 49 335 0.0 0.0 0.00 0.00 0.00 100 990.8
20260905053051 49 297 0.0 0.0 0.00 0.00 0.00 100 990.8
20260905052607 49 338 0.0 0.0 0.00 0.00 0.00 100 990.9
20260905052050 49 339 0.0 0.0 0.00 0.00 0.00 100 990.9
20260905051544 49 319 0.0 0.0 0.00 0.00 0.00 100 990.9
20260905051025 49 332 0.0 0.0 0.00 0.00 0.00 100 990.8
20260905050531 48 339 0.0 0.0 0.00 0.00 0.00 100 990.8
20260905050043 48 334 0.0 0.0 0.00 0.00 0.00 100 990.8
20260905045525 48 312 0.0 0.0 0.00 0.00 0.00 100 990.8
20260905045034 48 314 0.0 0.0 0.00 0.00 0.00 100 990.8
20260905044521 47 314 0.0 0.0 0.00 0.00 0.00 100 990.8
20260905044029 47 314 0.0 0.0 0.00 0.00 0.00 100 990.9
20260905043526 47 318 0.0 0.0 0.00 0.00 0.00 100 990.9
20260905043029 47 319 0.0 0.0 0.00 0.00 0.00 100 990.9
20260905042535 47 319 0.0 0.0 0.00 0.00 0.00 100 990.9
20260905042024 46 319 0.0 0.0 0.00 0.00 0.00 100 990.9
20260905041538 46 191 0.0 0.0 0.00 0.00 0.00 100 990.9
20260905041024 46 191 0.0 0.0 0.00 0.00 0.00 100 990.8
20260905040532 46 191 0.0 0.0 0.00 0.00 0.00 100 990.8
20260905040043 46 191 0.0 0.0 0.00 0.00 0.00 100 990.8
20260905035525 46 191 0.0 0.0 0.00 0.00 0.00 100 990.8
20260905035029 45 191 0.0 0.0 0.00 0.00 0.00 100 990.8
20260905034544 45 191 0.0 0.0 0.00 0.00 0.00 100 990.8
20260905034029 45 191 0.0 0.0 0.00 0.00 0.00 100 990.7
20260905033534 45 191 0.0 0.0 0.00 0.00 0.00 100 990.7
20260905033029 45 191 0.0 0.0 0.00 0.00 0.00 100 990.7
20260905032526 45 191 0.0 0.0 0.00 0.00 0.00 100 990.8
20260905032038 45 191 0.0 0.0 0.00 0.00 0.00 100 990.8
20260905031522 44 191 0.0 0.0 0.00 0.00 0.00 100 990.8
20260905031101 44 191 0.0 0.0 0.00 0.00 0.00 100 990.7
20260905030530 44 191 0.0 0.0 0.00 0.00 0.00 100 990.7
20260905030051 44 191 0.0 0.0 0.00 0.00 0.00 100 990.8
20260905025535 44 191 0.0 0.0 0.00 0.00 0.00 100 990.8
20260905025020 44 191 0.0 0.0 0.00 0.00 0.00 100 990.8
20260905024526 44 191 0.0 0.0 0.00 0.00 0.00 100 990.8
20260905024055 43 191 0.0 0.0 0.00 0.00 0.00 100 990.8
20260905023541 43 191 0.0 0.0 0.00 0.00 0.00 100 990.8
20260905023037 43 191 0.0 0.0 0.00 0.00 0.00 100 990.8
20260905022519 43 191 0.0 0.0 0.00 0.00 0.00 100 990.7
20260905022027 43 191 0.0 0.0 0.00 0.00 0.00 100 990.7
20260905021534 43 191 0.0 0.0 0.00 0.00 0.00 100 990.7
20260905021031 43 191 0.0 0.0 0.00 0.00 0.00 100 990.7
20260905020529 43 191 0.0 0.0 0.00 0.00 0.00 100 990.7
20260905020034 43 191 0.0 0.0 0.00 0.00 0.00 100 990.7
20260905015529 43 191 0.0 0.0 0.00 0.00 0.00 100 990.6
20260905015035 43 191 0.0 0.0 0.00 0.00 0.00 100 990.6
20260905014521 43 191 0.0 0.0 0.00 0.00 0.00 100 990.6
20260905014038 43 191 0.0 0.0 0.00 0.00 0.00 100 990.8
20260905013524 43 191 0.0 0.0 0.00 0.00 0.00 100 990.8
20260905013027 42 191 0.0 0.0 0.00 0.00 0.00 99 990.8
20260905012607 42 191 0.0 0.0 0.00 0.00 0.00 99 990.9
20260905012052 42 191 0.0 0.0 0.00 0.00 0.00 99 990.9
20260905011520 42 191 0.0 0.0 0.00 0.00 0.00 99 990.9
20260905011034 42 191 0.0 0.0 0.00 0.00 0.00 99 990.9
20260905010523 42 191 0.0 0.0 0.00 0.00 0.00 99 990.9
20260905010033 42 191 0.0 0.0 0.00 0.00 0.00 99 990.9
20260905005553 42 191 0.0 0.0 0.00 0.00 0.00 99 990.9
20260905005020 42 191 0.0 0.0 0.00 0.00 0.00 98 990.9
20260905004527 42 191 0.0 0.0 0.00 0.00 0.00 98 990.9
20260905004036 42 191 0.0 0.0 0.00 0.00 0.00 98 990.9
20260905003541 42 191 0.0 0.0 0.00 0.00 0.00 98 990.9
20260905003028 42 191 0.0 0.0 0.00 0.00 0.00 98 990.9
20260905002534 42 191 0.0 0.0 0.00 0.00 0.00 97 990.9
20260905002020 41 191 0.0 0.0 0.00 0.00 0.00 97 990.9
20260905001533 42 191 0.0 0.0 0.00 0.00 0.00 97 990.9
20260905001017 41 191 0.0 0.0 0.00 0.00 0.00 97 991.1
20260905000526 42 191 0.0 0.0 0.00 0.00 0.00 97 991.1
20260905000052 42 191 0.0 0.0 0.00 0.00 0.00 97 991.1
20260904235536 42 191 0.0 0.0 0.00 0.00 0.00 97 991.3
20260904235022 42 191 0.0 0.0 0.00 0.00 0.00 97 991.3
20260904234532 42 191 0.0 0.0 0.00 0.00 0.00 97 991.3
20260904234045 42 191 0.0 0.0 0.00 0.00 0.00 97 991.4
20260904233558 42 191 0.0 0.0 0.00 0.00 0.00 97 991.4
20260904233026 42 191 0.0 0.0 0.00 0.00 0.00 97 991.4
20260904232539 42 191 0.0 0.0 0.00 0.00 0.00 97 991.4
20260904232024 43 191 0.0 0.0 0.00 0.00 0.00 97 991.4
20260904231530 43 191 0.0 0.0 0.00 0.00 0.00 97 991.4
20260904231031 43 191 0.0 0.0 0.00 0.00 0.00 97 991.4
20260904230546 43 191 0.0 0.0 0.00 0.00 0.00 97 991.4
20260904230033 43 191 0.0 0.0 0.00 0.00 0.00 97 991.4
20260904225539 43 191 0.0 0.0 0.00 0.00 0.00 97 991.4
20260904225024 44 191 0.0 0.0 0.00 0.00 0.00 97 991.4
20260904224538 44 191 0.0 0.0 0.00 0.00 0.00 97 991.4
20260904224043 44 191 0.0 0.0 0.00 0.00 0.00 97 991.5
20260904223528 44 191 0.0 0.0 0.00 0.00 0.00 97 991.5
20260904223047 44 191 0.0 0.0 0.00 0.00 0.00 97 991.5
20260904222528 44 191 0.0 0.0 0.00 0.00 0.00 97 991.6
20260904222033 44 191 0.0 0.0 0.00 0.00 0.00 97 991.6
20260904221522 44 191 0.0 0.0 0.00 0.00 0.00 96 991.6
20260904221041 45 191 0.0 0.0 0.00 0.00 0.00 96 991.7
20260904220525 45 191 0.0 0.0 0.00 0.00 0.00 96 991.7
20260904220048 45 191 0.0 0.0 0.00 0.00 0.00 96 991.7
20260904215554 45 191 0.0 0.0 0.00 0.00 0.00 96 991.8
20260904215037 45 191 0.0 0.0 0.00 0.00 0.00 96 991.8
20260904214551 45 191 0.0 0.0 0.00 0.00 0.00 96 991.8
20260904214035 45 191 0.0 0.0 0.00 0.00 0.00 96 991.9
20260904213520 45 191 0.0 0.0 0.00 0.00 0.00 96 991.9
20260904213035 44 191 0.0 0.0 0.00 0.00 0.00 96 991.9
20260904212553 44 191 0.0 0.0 0.00 0.00 0.00 96 991.9
20260904212035 44 191 0.0 0.0 0.00 0.00 0.00 95 991.9
20260904211522 44 191 0.0 0.0 0.00 0.00 0.00 95 991.9
20260904211036 44 191 0.0 0.0 0.00 0.00 0.00 95 992.0
20260904210521 44 191 0.0 0.0 0.00 0.00 0.00 95 992.0
20260904210037 44 191 0.0 0.0 0.00 0.00 0.05 95 992.0
20260904205537 44 191 0.0 0.0 0.00 0.00 0.05 94 992.0
20260904205022 44 191 0.0 0.0 0.00 0.00 0.05 94 992.0
20260904204535 44 191 0.0 0.0 0.00 0.00 0.05 94 992.0
20260904204039 44 191 0.0 0.0 0.00 0.00 0.05 94 992.0
20260904203526 45 191 0.0 0.0 0.00 0.00 0.05 94 992.0
20260904203033 45 191 0.0 0.0 0.00 0.00 0.05 94 992.0
20260904202546 45 191 0.0 0.0 0.00 0.00 0.05 93 992.0
20260904202031 45 191 0.0 0.0 0.00 0.00 0.05 93 992.0
20260904201523 45 191 0.0 0.0 0.00 0.00 0.05 93 992.0
20260904201103 46 191 0.0 0.0 0.00 0.00 0.05 93 992.1
20260904200550 46 191 0.0 0.0 0.00 0.00 0.05 93 992.1
20260904200021 46 191 0.0 0.0 0.00 0.00 0.05 93 992.1
20260904195536 46 191 0.0 0.0 0.00 0.00 0.05 93 992.3
20260904195021 46 191 0.0 0.0 0.00 0.00 0.05 92 992.3
20260904194529 46 191 0.0 0.0 0.00 0.00 0.05 92 992.3
20260904194043 47 191 0.0 0.0 0.00 0.00 0.05 92 992.4
20260904193533 47 191 0.0 0.0 0.00 0.00 0.05 92 992.4
20260904193022 47 191 0.0 0.0 0.00 0.00 0.05 91 992.4
20260904192527 47 191 0.0 0.0 0.00 0.00 0.05 91 992.4
20260904192043 48 191 0.0 0.0 0.00 0.00 0.05 91 992.4
20260904191529 48 191 0.0 0.0 0.00 0.00 0.05 90 992.4
20260904191028 48 191 0.0 0.0 0.00 0.00 0.05 90 992.5
20260904190607 48 191 0.0 0.0 0.00 0.00 0.05 90 992.5
20260904190036 49 191 0.0 0.0 0.00 0.00 0.05 89 992.5
20260904185538 49 191 0.0 0.0 0.00 0.00 0.05 89 992.6
20260904185030 49 191 0.0 0.0 0.00 0.00 0.05 88 992.6
20260904184538 50 191 0.0 0.0 0.00 0.00 0.05 88 992.6
20260904184023 50 191 0.0 0.0 0.00 0.00 0.05 88 992.8
20260904183533 50 191 0.0 0.0 0.00 0.00 0.05 87 992.8
20260904183051 51 191 0.0 0.0 0.00 0.00 0.05 86 992.8
20260904182537 51 191 0.0 0.0 0.00 0.00 0.05 86 992.7
20260904182047 51 191 0.0 0.0 0.00 0.00 0.05 86 992.7
20260904181532 52 191 0.0 0.0 0.00 0.00 0.05 86 992.7
20260904181038 52 191 0.0 0.0 0.00 0.00 0.05 85 992.8
20260904180539 53 191 0.0 0.0 0.00 0.00 0.05 84 992.8
20260904180026 53 191 0.0 0.0 0.00 0.00 0.05 84 992.8
20260904175528 53 191 0.0 0.0 0.00 0.00 0.05 84 992.7
20260904175023 54 191 0.0 0.0 0.00 0.00 0.05 84 992.7
20260904174527 54 191 0.0 0.0 0.00 0.00 0.05 84 992.7
20260904174044 54 191 0.0 0.0 0.00 0.00 0.05 84 992.6
20260904173527 55 191 0.0 0.0 0.00 0.00 0.05 84 992.6
20260904173030 55 190 0.0 0.0 0.00 0.00 0.05 85 992.6
20260904172544 55 190 0.0 0.0 0.00 0.00 0.05 85 992.6
20260904172033 55 190 0.0 0.0 0.00 0.00 0.05 85 992.6
20260904171558 55 190 0.0 0.0 0.00 0.00 0.05 85 992.6
20260904171027 55 190 0.0 0.0 0.00 0.00 0.05 85 992.7
20260904170534 55 242 0.0 0.0 0.00 0.00 0.05 85 992.7
20260904170042 55 242 0.0 0.0 0.00 0.00 0.05 84 992.6
20260904165534 55 143 0.0 0.0 0.00 0.00 0.05 85 992.5
20260904165047 56 143 0.0 0.0 0.00 0.00 0.05 85 992.5
20260904164547 56 143 0.0 0.0 0.00 0.00 0.05 84 992.5
20260904164034 56 143 0.0 0.0 0.00 0.00 0.05 83 992.6
20260904163524 56 127 0.0 0.0 0.00 0.00 0.05 83 992.6
20260904163103 56 126 0.0 0.0 0.00 0.00 0.05 82 992.6
20260904162531 56 126 0.0 0.0 0.00 0.00 0.05 82 992.6
20260904162036 56 126 0.0 0.0 0.00 0.00 0.05 81 992.6
20260904161530 56 33 0.0 0.0 0.00 0.00 0.05 80 992.6
20260904161044 57 109 0.0 0.0 0.00 0.00 0.05 81 992.6
20260904160524 57 26 0.0 0.0 0.00 0.00 0.05 80 992.6
20260904160031 57 26 1.0 0.0 0.00 0.00 0.05 79 992.6
20260904155527 57 24 1.0 0.0 0.00 0.00 0.05 80 992.6
20260904155032 57 13 0.0 0.0 0.00 0.00 0.05 81 992.6
20260904154536 58 10 0.0 0.0 0.00 0.00 0.05 81 992.6
20260904154026 58 10 0.0 0.0 0.00 0.00 0.05 80 992.7
20260904153532 58 10 0.0 0.0 0.00 0.00 0.05 79 992.7
20260904153045 59 79 0.0 0.0 0.00 0.00 0.05 79 992.7
20260904152529 59 79 2.0 0.0 0.00 0.00 0.05 75 992.9
20260904152102 59 17 4.0 0.0 0.00 0.00 0.05 72 992.9
20260904151525 60 16 3.0 0.0 0.00 0.00 0.04 70 992.9
20260904151036 61 27 1.0 0.0 0.00 0.00 0.04 66 992.9
20260904150520 62 16 1.0 0.0 0.00 0.00 0.04 62 993.0
20260904150025 62 310 1.0 0.0 0.00 0.00 0.04 61 992.9
20260904145535 62 9 0.0 0.0 0.00 0.00 0.04 59 992.9
20260904145020 62 278 0.0 0.0 0.00 0.00 0.04 59 992.9
20260904144548 62 334 0.0 0.0 0.00 0.00 0.04 62 992.9